START_TIME,STEP,MOV.,A46,t_acc.,A13,t_acc.,M47,t_acc.,A17,t_acc.,A28,t_acc.,M38,t_acc.
1979-03-10 09:14:27.220 ,0,0,,0,,0,,0,,0,,0,,0
1979-03-10 09:14:32.020 ,0,0,,0,0.,4.8,0.,4.8,,0,0.,4.8,1.,4.8
1979-03-10 09:14:36.820 ,0,0,,0,0.,4.8,0.,4.8,,0,0.,4.8,1.,4.8
1979-03-10 09:14:41.620 ,0,0,,0,3.,4.8,1.,4.8,,0,0.,4.8,1.,4.8
1979-03-10 09:14:46.420 ,0,0,,0,1.,4.8,0.,4.8,,0,0.,4.8,0.,4.8
1979-03-10 09:14:47.020 ,5,0,,0,1.,4.8,0.,4.8,,0,0.,4.8,0.,4.8
1979-03-10 09:14:51.820 ,5,0,,0,0.,4.8,0.,4.8,,0,0.,4.8,0.,4.8
1979-03-10 09:14:56.620 ,5,0,,0,1.,4.8,1.,4.8,,0,0.,4.8,0.,4.8
1979-03-10 09:15:01.420 ,5,0,,0,0.,4.8,0.,4.8,,0,0.,4.8,0.,4.8
1979-03-10 09:15:06.220 ,5,0,,0,0.,4.8,0.,4.8,,0,0.,4.8,2.,4.8
1979-03-10 09:15:11.020 ,6,0,,0,0.,4.8,0.,4.8,,0,0.,4.8,0.,4.8
1979-03-10 09:15:15.820 ,6,0,,0,0.,4.8,0.,4.8,,0,0.,4.8,0.,4.8
1979-03-10 09:15:20.620 ,6,0,,0,0.,4.8,0.,4.8,,0,0.,4.8,0.,4.8
1979-03-10 09:15:25.420 ,6,0,,0,0.,4.8,0.,4.8,,0,0.,4.8,0.,4.8
1979-03-10 09:15:30.220 ,6,0,,0,0.,4.8,0.,4.8,,0,0.,4.8,0.,4.8
1979-03-10 09:15:35.020 ,7,0,,0,1.,4.8,0.,4.8,,0,0.,4.8,0.,4.8
1979-03-10 09:15:39.820 ,7,0,,0,4.,4.8,0.,4.8,,0,0.,4.8,0.,4.8
1979-03-10 09:15:44.620 ,7,0,,0,6.,4.8,0.,4.8,,0,0.,4.8,0.,4.8
1979-03-10 09:15:49.420 ,7,0,,0,0.,4.8,0.,4.8,,0,0.,4.8,0.,4.8
1979-03-10 09:15:54.220 ,7,0,,0,0.,4.8,0.,4.8,,0,0.,4.8,0.,4.8
1979-03-10 09:15:59.020 ,6,0,,0,0.,4.8,0.,4.8,,0,0.,4.8,0.,4.8
1979-03-10 09:16:03.820 ,6,0,,0,0.,4.8,0.,4.8,,0,0.,4.8,0.,4.8
1979-03-10 09:16:08.620 ,6,0,,0,1.,4.8,0.,4.8,,0,0.,4.8,0.,4.8
1979-03-10 09:16:13.420 ,6,0,,0,4.,4.8,0.,4.8,,0,0.,4.8,0.,4.8
1979-03-10 09:16:18.220 ,6,0,,0,8.,4.8,0.,4.8,,0,0.,4.8,0.,4.8
1979-03-10 09:16:23.020 ,0,0,,0,1.,4.8,0.,4.8,,0,0.,4.8,0.,4.8
1979-03-10 09:16:27.820 ,0,0,,0,7.,4.8,0.,4.8,,0,0.,4.8,0.,4.8
1979-03-10 09:16:32.620 ,0,0,,0,4.,4.8,0.,4.8,,0,0.,4.8,0.,4.8
1979-03-10 09:16:37.420 ,0,0,,0,0.,4.8,0.,4.8,,0,0.,4.8,0.,4.8
1979-03-10 09:16:42.220 ,0,0,,0,0.,4.8,0.,4.8,,0,0.,4.8,0.,4.8
1979-03-10 09:16:47.020 ,0,0,,0,0.,4.8,0.,4.8,,0,0.,4.8,0.,4.8
1979-03-10 09:16:51.820 ,0,0,,0,0.,4.8,0.,4.8,,0,0.,4.8,0.,4.8
1979-03-10 09:16:56.620 ,0,0,,0,0.,4.8,0.,4.8,,0,0.,4.8,0.,4.8
1979-03-10 09:17:01.420 ,0,0,,0,0.,4.8,0.,4.8,,0,0.,4.8,0.,4.8
1979-03-10 09:17:06.220 ,0,0,,0,0.,4.8,0.,4.8,,0,0.,4.8,0.,4.8
1979-03-10 09:17:11.020 ,5,0,,0,1.,4.8,0.,4.8,,0,0.,4.8,0.,4.8
1979-03-10 09:17:15.820 ,5,0,,0,0.,4.8,0.,4.8,,0,0.,4.8,1.,4.8
1979-03-10 09:17:20.620 ,5,0,,0,4.,4.8,0.,4.8,,0,0.,4.8,0.,4.8
1979-03-10 09:17:25.420 ,5,0,,0,0.,4.8,0.,4.8,,0,0.,4.8,0.,4.8
1979-03-10 09:17:30.220 ,5,0,,0,0.,4.8,0.,4.8,,0,0.,4.8,1.,4.8
1979-03-10 09:17:35.020 ,4,0,,0,0.,4.8,0.,4.8,,0,0.,4.8,0.,4.8
1979-03-10 09:17:39.820 ,4,0,,0,0.,4.8,0.,4.8,,0,0.,4.8,2.,4.8
1979-03-10 09:17:44.620 ,4,0,,0,0.,4.8,0.,4.8,,0,0.,4.8,0.,4.8
1979-03-10 09:17:49.420 ,4,0,,0,1.,4.8,0.,4.8,,0,0.,4.8,3.,4.8
1979-03-10 09:17:54.220 ,4,0,,0,1.,4.8,0.,4.8,,0,0.,4.8,0.,4.8
1979-03-10 09:17:59.020 ,3,0,,0,1.,4.8,0.,4.8,,0,0.,4.8,2.,4.8
1979-03-10 09:18:03.820 ,3,0,,0,1.,4.8,0.,4.8,,0,0.,4.8,0.,4.8
1979-03-10 09:18:08.620 ,3,0,,0,1.,4.8,0.,4.8,,0,0.,4.8,0.,4.8
1979-03-10 09:18:13.420 ,3,0,,0,0.,4.8,0.,4.8,,0,0.,4.8,1.,4.8
1979-03-10 09:18:18.220 ,3,0,,0,0.,4.8,0.,4.8,,0,0.,4.8,0.,4.8
1979-03-10 09:18:23.020 ,2,0,,0,0.,4.8,0.,4.8,,0,0.,4.8,0.,4.8
1979-03-10 09:18:27.820 ,2,0,,0,0.,4.8,0.,4.8,,0,0.,4.8,0.,4.8
1979-03-10 09:18:32.620 ,2,0,,0,0.,4.8,0.,4.8,,0,0.,4.8,0.,4.8
1979-03-10 09:18:37.420 ,2,0,,0,3.,4.8,1.,4.8,,0,0.,4.8,1.,4.8
1979-03-10 09:18:42.220 ,2,0,,0,1.,4.8,0.,4.8,,0,0.,4.8,0.,4.8
1979-03-10 09:18:47.020 ,1,0,,0,0.,4.8,0.,4.8,,0,0.,4.8,2.,4.8
1979-03-10 09:18:51.820 ,1,0,,0,1.,4.8,0.,4.8,,0,0.,4.8,0.,4.8
1979-03-10 09:18:56.620 ,1,0,,0,0.,4.8,0.,4.8,,0,0.,4.8,0.,4.8
1979-03-10 09:19:01.420 ,1,0,,0,0.,4.8,0.,4.8,,0,0.,4.8,0.,4.8
1979-03-10 09:19:06.220 ,1,0,,0,0.,4.8,0.,4.8,,0,0.,4.8,0.,4.8
1979-03-10 09:19:11.020 ,0,0,,0,0.,4.8,0.,4.8,,0,0.,4.8,0.,4.8
1979-03-10 09:19:15.820 ,0,0,,0,0.,4.8,0.,4.8,,0,0.,4.8,1.,4.8
1979-03-10 09:19:20.620 ,0,0,,0,0.,4.8,0.,4.8,,0,0.,4.8,0.,4.8
1979-03-10 09:19:25.420 ,0,0,,0,0.,4.8,0.,4.8,,0,0.,4.8,0.,4.8
1979-03-10 09:19:30.220 ,0,0,,0,1.,4.8,0.,4.8,,0,0.,4.8,0.,4.8
1979-03-10 09:19:35.020 ,0,0,,0,1.,4.8,0.,4.8,,0,0.,4.8,0.,4.8
1979-03-10 09:19:39.820 ,0,0,,0,0.,4.8,0.,4.8,,0,0.,4.8,0.,4.8
1979-03-10 09:19:44.620 ,0,0,,0,0.,4.8,0.,4.8,,0,0.,4.8,0.,4.8
1979-03-10 09:19:49.420 ,0,0,,0,0.,4.8,0.,4.8,,0,0.,4.8,0.,4.8
1979-03-10 09:19:54.220 ,0,0,,0,0.,4.8,0.,4.8,,0,0.,4.8,0.,4.8
1979-03-10 09:19:59.020 ,1,0,,0,0.,4.8,0.,4.8,,0,0.,4.8,1.,4.8
1979-03-10 09:20:03.820 ,1,0,,0,0.,4.8,0.,4.8,,0,0.,4.8,0.,4.8
1979-03-10 09:20:08.620 ,1,0,,0,0.,4.8,0.,4.8,,0,0.,4.8,0.,4.8
1979-03-10 09:20:13.420 ,1,0,,0,0.,4.8,0.,4.8,,0,0.,4.8,0.,4.8
1979-03-10 09:20:18.220 ,1,0,,0,0.,4.8,0.,4.8,,0,0.,4.8,0.,4.8
1979-03-10 09:20:23.020 ,2,0,,0,0.,4.8,0.,4.8,,0,0.,4.8,0.,4.8
1979-03-10 09:20:27.820 ,2,0,,0,0.,4.8,0.,4.8,,0,0.,4.8,0.,4.8
1979-03-10 09:20:32.620 ,2,0,,0,0.,4.8,0.,4.8,,0,0.,4.8,0.,4.8
1979-03-10 09:20:37.420 ,2,0,,0,0.,4.8,0.,4.8,,0,0.,4.8,1.,4.8
1979-03-10 09:20:42.220 ,2,0,,0,0.,4.8,0.,4.8,,0,0.,4.8,0.,4.8
1979-03-10 09:20:47.020 ,3,0,,0,0.,4.8,0.,4.8,,0,0.,4.8,0.,4.8
1979-03-10 09:20:51.820 ,3,0,,0,0.,4.8,0.,4.8,,0,0.,4.8,0.,4.8
1979-03-10 09:20:56.620 ,3,0,,0,1.,4.8,0.,4.8,,0,0.,4.8,0.,4.8
1979-03-10 09:21:01.420 ,3,0,,0,1.,4.8,0.,4.8,,0,0.,4.8,1.,4.8
1979-03-10 09:21:06.220 ,3,0,,0,1.,4.8,0.,4.8,,0,0.,4.8,1.,4.8
1979-03-10 09:21:11.020 ,4,0,,0,4.,4.8,0.,4.8,,0,0.,4.8,1.,4.8
1979-03-10 09:21:15.820 ,4,0,,0,0.,4.8,0.,4.8,,0,0.,4.8,1.,4.8
1979-03-10 09:21:20.620 ,4,0,,0,2.,4.8,0.,4.8,,0,0.,4.8,3.,4.8
1979-03-10 09:21:25.420 ,4,0,,0,0.,4.8,0.,4.8,,0,0.,4.8,1.,4.8
1979-03-10 09:21:30.220 ,4,0,,0,0.,4.8,0.,4.8,,0,0.,4.8,4.,4.8
1979-03-10 09:21:35.020 ,5,0,,0,0.,4.8,0.,4.8,,0,0.,4.8,0.,4.8
1979-03-10 09:21:39.820 ,5,0,,0,0.,4.8,0.,4.8,,0,0.,4.8,1.,4.8
1979-03-10 09:21:44.620 ,5,0,,0,0.,4.8,0.,4.8,,0,0.,4.8,1.,4.8
1979-03-10 09:21:49.420 ,5,0,,0,5.,4.8,0.,4.8,,0,0.,4.8,2.,4.8
1979-03-10 09:21:54.220 ,5,0,,0,1.,4.8,1.,4.8,,0,0.,4.8,3.,4.8
1979-03-10 09:21:59.020 ,0,0,,0,1.,4.8,0.,4.8,,0,0.,4.8,2.,4.8
1979-03-10 09:22:03.820 ,0,0,,0,1.,4.8,0.,4.8,,0,0.,4.8,0.,4.8
1979-03-10 09:22:08.620 ,0,0,,0,0.,4.8,0.,4.8,,0,0.,4.8,0.,4.8
1979-03-10 09:22:13.420 ,0,0,,0,0.,4.8,0.,4.8,,0,0.,4.8,0.,4.8
1979-03-10 09:22:18.220 ,0,0,,0,,0,,0,,0,,0,,0
1979-03-10 09:23:05.620 ,0,0,,0,,0,,0,,0,,0,,0
1979-03-10 09:23:10.420 ,0,0,,0,,0,,0,,0,,0,,0
1979-03-10 09:23:15.220 ,0,0,,0,,0,,0,,0,,0,,0
1979-03-10 09:23:20.020 ,0,0,,0,,0,,0,,0,,0,,0
1979-03-10 09:23:24.820 ,0,0,,0,0.,4.8,0.,4.8,,0,0.,4.8,0.,4.8
1979-03-10 09:23:11.020 ,6,0,,0,0.,4.8,0.,4.8,,0,0.,4.8,0.,4.8
1979-03-10 09:23:15.820 ,6,0,,0,0.,4.8,0.,4.8,,0,0.,4.8,0.,4.8
1979-03-10 09:23:20.620 ,6,0,,0,0.,4.8,0.,4.8,,0,0.,4.8,0.,4.8
1979-03-10 09:23:25.420 ,6,0,,0,0.,4.8,0.,4.8,,0,0.,4.8,0.,4.8
1979-03-10 09:23:30.220 ,6,0,,0,0.,4.8,0.,4.8,,0,0.,4.8,0.,4.8
1979-03-10 09:23:35.020 ,5,0,,0,0.,4.8,0.,4.8,,0,0.,4.8,0.,4.8
1979-03-10 09:23:39.820 ,5,0,,0,2.,4.8,1.,4.8,,0,0.,4.8,1.,4.8
1979-03-10 09:23:44.620 ,5,0,,0,4.,4.8,0.,4.8,,0,0.,4.8,1.,4.8
1979-03-10 09:23:49.420 ,5,0,,0,1.,4.8,0.,4.8,,0,0.,4.8,1.,4.8
1979-03-10 09:23:54.220 ,5,0,,0,0.,4.8,0.,4.8,,0,0.,4.8,3.,4.8
1979-03-10 09:23:59.020 ,4,0,,0,0.,4.8,0.,4.8,,0,0.,4.8,0.,4.8
1979-03-10 09:24:03.820 ,4,0,,0,0.,4.8,0.,4.8,,0,0.,4.8,4.,4.8
1979-03-10 09:24:08.620 ,4,0,,0,0.,4.8,0.,4.8,,0,0.,4.8,1.,4.8
1979-03-10 09:24:13.420 ,4,0,,0,2.,4.8,0.,4.8,,0,0.,4.8,0.,4.8
1979-03-10 09:24:18.220 ,4,0,,0,3.,4.8,1.,4.8,,0,0.,4.8,2.,4.8
1979-03-10 09:24:23.020 ,3,0,,0,2.,4.8,1.,4.8,,0,0.,4.8,0.,4.8
1979-03-10 09:24:27.820 ,3,0,,0,1.,4.8,0.,4.8,,0,0.,4.8,1.,4.8
1979-03-10 09:24:32.620 ,3,0,,0,0.,4.8,0.,4.8,,0,0.,4.8,2.,4.8
1979-03-10 09:24:37.420 ,3,0,,0,0.,4.8,0.,4.8,,0,0.,4.8,1.,4.8
1979-03-10 09:24:42.220 ,3,0,,0,0.,4.8,0.,4.8,,0,0.,4.8,0.,4.8
1979-03-10 09:24:47.020 ,2,0,,0,0.,4.8,0.,4.8,,0,0.,4.8,1.,4.8
1979-03-10 09:24:51.820 ,2,0,,0,0.,4.8,0.,4.8,,0,0.,4.8,1.,4.8
1979-03-10 09:24:56.620 ,2,0,,0,1.,4.8,0.,4.8,,0,0.,4.8,0.,4.8
1979-03-10 09:25:01.420 ,2,0,,0,0.,4.8,0.,4.8,,0,0.,4.8,1.,4.8
1979-03-10 09:25:06.220 ,2,0,,0,1.,4.8,1.,4.8,,0,0.,4.8,4.,4.8
1979-03-10 09:25:11.020 ,1,0,,0,0.,4.8,0.,4.8,,0,0.,4.8,2.,4.8
1979-03-10 09:25:15.820 ,1,0,,0,1.,4.8,0.,4.8,,0,0.,4.8,0.,4.8
1979-03-10 09:25:20.620 ,1,0,,0,,0,,0,,0,,0,,0
1979-03-10 09:25:25.420 ,1,0,,0,0.,4.8,0.,4.8,,0,0.,4.8,0.,4.8
1979-03-10 09:25:30.220 ,1,0,,0,0.,4.8,0.,4.8,,0,0.,4.8,0.,4.8
1979-03-10 09:25:35.020 ,0,0,,0,0.,4.8,0.,4.8,,0,0.,4.8,0.,4.8
1979-03-10 09:25:39.820 ,0,0,,0,0.,4.8,0.,4.8,,0,0.,4.8,0.,4.8
1979-03-10 09:25:44.620 ,0,0,,0,0.,4.8,0.,4.8,,0,0.,4.8,0.,4.8
1979-03-10 09:25:49.420 ,0,0,,0,0.,4.8,0.,4.8,,0,0.,4.8,0.,4.8
1979-03-10 09:25:54.220 ,0,0,,0,0.,4.8,0.,4.8,,0,0.,4.8,0.,4.8
1979-03-10 09:25:59.020 ,0,0,,0,1.,4.8,1.,4.8,,0,0.,4.8,0.,4.8
1979-03-10 09:26:03.820 ,0,0,,0,0.,4.8,0.,4.8,,0,0.,4.8,1.,4.8
1979-03-10 09:26:08.620 ,0,0,,0,0.,4.8,0.,4.8,,0,0.,4.8,0.,4.8
1979-03-10 09:26:13.420 ,0,0,,0,0.,4.8,0.,4.8,,0,0.,4.8,0.,4.8
1979-03-10 09:26:18.220 ,0,0,,0,0.,4.8,0.,4.8,,0,0.,4.8,0.,4.8
1979-03-10 09:26:23.020 ,1,0,,0,0.,4.8,0.,4.8,,0,0.,4.8,0.,4.8
1979-03-10 09:26:27.820 ,1,0,,0,0.,4.8,0.,4.8,,0,0.,4.8,0.,4.8
1979-03-10 09:26:32.620 ,1,0,,0,0.,4.8,0.,4.8,,0,0.,4.8,0.,4.8
1979-03-10 09:26:37.420 ,1,0,,0,0.,4.8,0.,4.8,,0,0.,4.8,0.,4.8
1979-03-10 09:26:42.220 ,1,0,,0,1.,4.8,0.,4.8,,0,0.,4.8,0.,4.8
1979-03-10 09:26:47.020 ,2,0,,0,0.,4.8,0.,4.8,,0,0.,4.8,0.,4.8
1979-03-10 09:26:51.820 ,2,0,,0,1.,4.8,0.,4.8,,0,0.,4.8,0.,4.8
1979-03-10 09:26:56.620 ,2,0,,0,1.,4.8,0.,4.8,,0,0.,4.8,2.,4.8
1979-03-10 09:27:01.420 ,2,0,,0,0.,4.8,0.,4.8,,0,0.,4.8,3.,4.8
1979-03-10 09:27:06.220 ,2,0,,0,0.,4.8,0.,4.8,,0,0.,4.8,1.,4.8
1979-03-10 09:27:11.020 ,3,0,,0,0.,4.8,0.,4.8,,0,0.,4.8,1.,4.8
1979-03-10 09:27:15.820 ,3,0,,0,0.,4.8,0.,4.8,,0,0.,4.8,0.,4.8
1979-03-10 09:27:20.620 ,3,0,,0,0.,4.8,0.,4.8,,0,0.,4.8,3.,4.8
1979-03-10 09:27:25.420 ,3,0,,0,3.,4.8,0.,4.8,,0,0.,4.8,1.,4.8
1979-03-10 09:27:30.220 ,3,0,,0,3.,4.8,0.,4.8,,0,0.,4.8,0.,4.8
1979-03-10 09:27:35.020 ,4,0,,0,1.,4.8,0.,4.8,,0,0.,4.8,1.,4.8
1979-03-10 09:27:39.820 ,4,0,,0,1.,4.8,0.,4.8,,0,0.,4.8,1.,4.8
1979-03-10 09:27:44.620 ,4,0,,0,0.,4.8,0.,4.8,,0,0.,4.8,0.,4.8
1979-03-10 09:27:49.420 ,4,0,,0,0.,4.8,0.,4.8,,0,0.,4.8,0.,4.8
1979-03-10 09:27:54.220 ,4,0,,0,0.,4.8,0.,4.8,,0,0.,4.8,0.,4.8
1979-03-10 09:27:59.020 ,5,0,,0,0.,4.8,0.,4.8,,0,0.,4.8,1.,4.8
1979-03-10 09:28:03.820 ,5,0,,0,0.,4.8,0.,4.8,,0,0.,4.8,1.,4.8
1979-03-10 09:28:08.620 ,5,0,,0,2.,4.8,1.,4.8,,0,0.,4.8,1.,4.8
1979-03-10 09:28:13.420 ,5,0,,0,6.,4.8,2.,4.8,,0,0.,4.8,2.,4.8
1979-03-10 09:28:18.220 ,5,0,,0,2.,4.8,1.,4.8,,0,0.,4.8,1.,4.8
1979-03-10 09:28:23.020 ,6,0,,0,1.,4.8,0.,4.8,,0,0.,4.8,1.,4.8
1979-03-10 09:28:27.820 ,6,0,,0,3.,4.8,1.,4.8,,0,0.,4.8,0.,4.8
1979-03-10 09:28:32.620 ,6,0,,0,1.,4.8,1.,4.8,,0,0.,4.8,0.,4.8
1979-03-10 09:28:37.420 ,6,0,,0,0.,4.8,0.,4.8,,0,0.,4.8,0.,4.8
1979-03-10 09:28:42.220 ,6,0,,0,0.,4.8,0.,4.8,,0,0.,4.8,0.,4.8
1979-03-10 09:28:47.020 ,7,0,,0,0.,4.8,0.,4.8,,0,0.,4.8,0.,4.8
1979-03-10 09:28:51.820 ,7,0,,0,0.,4.8,0.,4.8,,0,0.,4.8,0.,4.8
1979-03-10 09:28:56.620 ,7,0,,0,0.,4.8,0.,4.8,,0,0.,4.8,0.,4.8
1979-03-10 09:29:01.420 ,7,0,,0,5.,4.8,0.,4.8,,0,0.,4.8,0.,4.8
1979-03-10 09:29:06.220 ,7,0,,0,6.,4.8,0.,4.8,,0,0.,4.8,0.,4.8
1979-03-10 09:29:11.020 ,7,0,,0,4.,4.8,0.,4.8,,0,0.,4.8,0.,4.8
1979-03-10 09:29:15.820 ,7,0,,0,3.,4.8,0.,4.8,,0,0.,4.8,0.,4.8
1979-03-10 09:29:20.620 ,7,0,,0,5.,4.8,0.,4.8,,0,0.,4.8,0.,4.8
1979-03-10 09:29:25.420 ,7,0,,0,0.,4.8,0.,4.8,,0,0.,4.8,0.,4.8
1979-03-10 09:29:30.220 ,7,0,,0,0.,4.8,0.,4.8,,0,0.,4.8,0.,4.8
1979-03-10 09:29:35.020 ,6,0,,0,0.,4.8,0.,4.8,,0,0.,4.8,0.,4.8
1979-03-10 09:29:39.820 ,6,0,,0,0.,4.8,0.,4.8,,0,0.,4.8,0.,4.8
1979-03-10 09:29:44.620 ,6,0,,0,0.,4.8,0.,4.8,,0,0.,4.8,0.,4.8
1979-03-10 09:29:49.420 ,6,0,,0,0.,4.8,0.,4.8,,0,0.,4.8,1.,4.8
1979-03-10 09:29:54.220 ,6,0,,0,4.,4.8,1.,4.8,,0,0.,4.8,1.,4.8
1979-03-10 09:29:59.020 ,5,0,,0,2.,4.8,0.,4.8,,0,0.,4.8,0.,4.8
1979-03-10 09:30:03.820 ,5,0,,0,3.,4.8,2.,4.8,,0,0.,4.8,0.,4.8
1979-03-10 09:30:08.620 ,5,0,,0,3.,4.8,1.,4.8,,0,0.,4.8,2.,4.8
1979-03-10 09:30:13.420 ,5,0,,0,0.,4.8,0.,4.8,,0,0.,4.8,1.,4.8
1979-03-10 09:30:18.220 ,5,0,,0,0.,4.8,0.,4.8,,0,0.,4.8,3.,4.8
1979-03-10 09:30:23.020 ,4,0,,0,0.,4.8,0.,4.8,,0,0.,4.8,3.,4.8
1979-03-10 09:30:27.820 ,4,0,,0,0.,4.8,0.,4.8,,0,0.,4.8,2.,4.8
1979-03-10 09:30:32.620 ,4,0,,0,0.,4.8,0.,4.8,,0,0.,4.8,1.,4.8
1979-03-10 09:30:37.420 ,4,0,,0,0.,4.8,0.,4.8,,0,0.,4.8,1.,4.8
1979-03-10 09:30:42.220 ,4,0,,0,1.,4.8,0.,4.8,,0,0.,4.8,1.,4.8
1979-03-10 09:30:47.020 ,3,0,,0,0.,4.8,0.,4.8,,0,0.,4.8,0.,4.8
1979-03-10 09:30:51.820 ,3,0,,0,2.,4.8,0.,4.8,,0,0.,4.8,1.,4.8
1979-03-10 09:30:56.620 ,3,0,,0,0.,4.8,0.,4.8,,0,0.,4.8,0.,4.8
1979-03-10 09:31:01.420 ,3,0,,0,0.,4.8,0.,4.8,,0,0.,4.8,2.,4.8
1979-03-10 09:31:06.220 ,3,0,,0,0.,4.8,0.,4.8,,0,0.,4.8,1.,4.8
1979-03-10 09:31:11.020 ,2,0,,0,0.,4.8,0.,4.8,,0,0.,4.8,2.,4.8
1979-03-10 09:31:15.820 ,2,0,,0,0.,4.8,0.,4.8,,0,0.,4.8,0.,4.8
1979-03-10 09:31:20.620 ,2,0,,0,0.,4.8,0.,4.8,,0,0.,4.8,0.,4.8
1979-03-10 09:31:25.420 ,2,0,,0,0.,4.8,0.,4.8,,0,0.,4.8,0.,4.8
1979-03-10 09:31:30.220 ,2,0,,0,1.,4.8,0.,4.8,,0,0.,4.8,0.,4.8
1979-03-10 09:31:35.020 ,1,0,,0,0.,4.8,0.,4.8,,0,0.,4.8,1.,4.8
1979-03-10 09:31:39.820 ,1,0,,0,0.,4.8,0.,4.8,,0,0.,4.8,0.,4.8
1979-03-10 09:31:44.620 ,1,0,,0,0.,4.8,0.,4.8,,0,0.,4.8,0.,4.8
1979-03-10 09:31:49.420 ,1,0,,0,0.,4.8,0.,4.8,,0,0.,4.8,0.,4.8
1979-03-10 09:31:54.220 ,1,0,,0,0.,4.8,0.,4.8,,0,0.,4.8,0.,4.8
1979-03-10 09:31:59.020 ,0,0,,0,0.,4.8,0.,4.8,,0,0.,4.8,0.,4.8
1979-03-10 09:32:03.820 ,0,0,,0,0.,4.8,0.,4.8,,0,0.,4.8,0.,4.8
1979-03-10 09:32:08.620 ,0,0,,0,0.,4.8,0.,4.8,,0,0.,4.8,0.,4.8
1979-03-10 09:32:13.420 ,0,0,,0,0.,4.8,0.,4.8,,0,0.,4.8,0.,4.8
1979-03-10 09:32:18.220 ,0,0,,0,0.,4.8,0.,4.8,,0,0.,4.8,1.,4.8
1979-03-10 09:32:23.020 ,0,0,,0,0.,4.8,0.,4.8,,0,0.,4.8,0.,4.8
1979-03-10 09:32:27.820 ,0,0,,0,0.,4.8,0.,4.8,,0,0.,4.8,0.,4.8
1979-03-10 09:32:32.620 ,0,0,,0,0.,4.8,0.,4.8,,0,0.,4.8,0.,4.8
1979-03-10 09:32:37.420 ,0,0,,0,0.,4.8,0.,4.8,,0,0.,4.8,0.,4.8
1979-03-10 09:32:42.220 ,0,0,,0,0.,4.8,0.,4.8,,0,0.,4.8,0.,4.8
1979-03-10 09:32:47.020 ,1,0,,0,0.,4.8,0.,4.8,,0,0.,4.8,0.,4.8
1979-03-10 09:32:51.820 ,1,0,,0,0.,4.8,0.,4.8,,0,0.,4.8,1.,4.8
1979-03-10 09:32:56.620 ,1,0,,0,0.,4.8,0.,4.8,,0,0.,4.8,0.,4.8
1979-03-10 09:33:01.420 ,1,0,,0,1.,4.8,0.,4.8,,0,0.,4.8,0.,4.8
1979-03-10 09:33:06.220 ,1,0,,0,0.,4.8,0.,4.8,,0,0.,4.8,0.,4.8
1979-03-10 09:33:11.020 ,2,0,,0,0.,4.8,0.,4.8,,0,0.,4.8,0.,4.8
1979-03-10 09:33:15.820 ,2,0,,0,1.,4.8,0.,4.8,,0,0.,4.8,0.,4.8
1979-03-10 09:33:20.620 ,2,0,,0,1.,4.8,0.,4.8,,0,0.,4.8,0.,4.8
1979-03-10 09:33:25.420 ,2,0,,0,0.,4.8,0.,4.8,,0,0.,4.8,1.,4.8
1979-03-10 09:33:30.220 ,2,0,,0,0.,4.8,0.,4.8,,0,0.,4.8,0.,4.8
1979-03-10 09:33:35.020 ,3,0,,0,0.,4.8,0.,4.8,,0,0.,4.8,1.,4.8
1979-03-10 09:33:39.820 ,3,0,,0,0.,4.8,0.,4.8,,0,0.,4.8,0.,4.8
1979-03-10 09:33:44.620 ,3,0,,0,0.,4.8,0.,4.8,,0,0.,4.8,1.,4.8
1979-03-10 09:33:49.420 ,3,0,,0,4.,4.8,0.,4.8,,0,0.,4.8,1.,4.8
1979-03-10 09:33:54.220 ,3,0,,0,1.,4.8,0.,4.8,,0,0.,4.8,0.,4.8
1979-03-10 09:33:59.020 ,4,0,,0,1.,4.8,0.,4.8,,0,0.,4.8,1.,4.8
1979-03-10 09:34:03.820 ,4,0,,0,5.,4.8,0.,4.8,,0,0.,4.8,0.,4.8
1979-03-10 09:34:08.620 ,4,0,,0,4.,4.8,1.,4.8,,0,0.,4.8,0.,4.8
1979-03-10 09:34:13.420 ,4,0,,0,0.,4.8,0.,4.8,,0,0.,4.8,4.,4.8
1979-03-10 09:34:18.220 ,4,0,,0,0.,4.8,0.,4.8,,0,0.,4.8,0.,4.8
1979-03-10 09:34:23.020 ,5,0,,0,0.,4.8,0.,4.8,,0,0.,4.8,2.,4.8
1979-03-10 09:34:27.820 ,5,0,,0,0.,4.8,0.,4.8,,0,0.,4.8,7.,4.8
1979-03-10 09:34:32.620 ,5,0,,0,2.,4.8,0.,4.8,,0,0.,4.8,5.,4.8
1979-03-10 09:34:37.420 ,5,0,,0,5.,4.8,0.,4.8,,0,0.,4.8,4.,4.8
1979-03-10 09:34:42.220 ,5,0,,0,8.,4.8,1.,4.8,,0,0.,4.8,6.,4.8
1979-03-10 09:34:47.020 ,6,0,,0,4.,4.8,0.,4.8,,0,0.,4.8,6.,4.8
1979-03-10 09:34:51.820 ,6,0,,0,5.,4.8,1.,4.8,,0,0.,4.8,3.,4.8
1979-03-10 09:34:56.620 ,6,0,,0,4.,4.8,1.,4.8,,0,0.,4.8,0.,4.8
1979-03-10 09:35:01.420 ,6,0,,0,0.,4.8,0.,4.8,,0,0.,4.8,2.,4.8
1979-03-10 09:35:06.220 ,6,0,,0,0.,4.8,0.,4.8,,0,0.,4.8,2.,4.8
1979-03-10 09:35:11.020 ,7,0,,0,0.,4.8,0.,4.8,,0,0.,4.8,2.,4.8
1979-03-10 09:35:15.820 ,7,0,,0,0.,4.8,0.,4.8,,0,0.,4.8,1.,4.8
1979-03-10 09:35:20.620 ,7,0,,0,0.,4.8,0.,4.8,,0,0.,4.8,0.,4.8
1979-03-10 09:35:25.420 ,7,0,,0,4.,4.8,0.,4.8,,0,0.,4.8,0.,4.8
1979-03-10 09:35:30.220 ,7,0,,0,3.,4.8,0.,4.8,,0,0.,4.8,0.,4.8
1979-03-10 09:35:35.020 ,7,0,,0,4.,4.8,0.,4.8,,0,0.,4.8,0.,4.8
1979-03-10 09:35:39.820 ,7,0,,0,6.,4.8,0.,4.8,,0,0.,4.8,0.,4.8
1979-03-10 09:35:44.620 ,7,0,,0,9.,4.8,0.,4.8,,0,0.,4.8,0.,4.8
1979-03-10 09:35:49.420 ,7,0,,0,0.,4.8,0.,4.8,,0,0.,4.8,0.,4.8
1979-03-10 09:35:54.220 ,7,0,,0,0.,4.8,0.,4.8,,0,0.,4.8,0.,4.8
1979-03-10 09:35:59.020 ,6,0,,0,0.,4.8,0.,4.8,,0,0.,4.8,0.,4.8
1979-03-10 09:36:03.820 ,6,0,,0,0.,4.8,0.,4.8,,0,0.,4.8,0.,4.8
1979-03-10 09:36:08.620 ,6,0,,0,0.,4.8,0.,4.8,,0,0.,4.8,1.,4.8
1979-03-10 09:36:13.420 ,6,0,,0,1.,4.8,0.,4.8,,0,0.,4.8,1.,4.8
1979-03-10 09:36:18.220 ,6,0,,0,3.,4.8,0.,4.8,,0,0.,4.8,1.,4.8
1979-03-10 09:36:23.020 ,5,0,,0,1.,4.8,0.,4.8,,0,0.,4.8,1.,4.8
1979-03-10 09:36:27.820 ,5,0,,0,4.,4.8,1.,4.8,,0,0.,4.8,4.,4.8
1979-03-10 09:36:32.620 ,5,0,,0,4.,4.8,1.,4.8,,0,0.,4.8,5.,4.8
1979-03-10 09:36:37.420 ,5,0,,0,0.,4.8,0.,4.8,,0,0.,4.8,8.,4.8
1979-03-10 09:36:42.220 ,5,0,,0,0.,4.8,0.,4.8,,0,0.,4.8,0.,4.8
1979-03-10 09:36:47.020 ,4,0,,0,0.,4.8,0.,4.8,,0,0.,4.8,3.,4.8
1979-03-10 09:36:51.820 ,4,0,,0,0.,4.8,0.,4.8,,0,0.,4.8,2.,4.8
1979-03-10 09:36:56.620 ,4,0,,0,0.,4.8,0.,4.8,,0,0.,4.8,1.,4.8
1979-03-10 09:37:01.420 ,4,0,,0,4.,4.8,0.,4.8,,0,0.,4.8,4.,4.8
1979-03-10 09:37:06.220 ,4,0,,0,4.,4.8,0.,4.8,,0,0.,4.8,3.,4.8
1979-03-10 09:37:11.020 ,3,0,,0,5.,4.8,1.,4.8,,0,0.,4.8,4.,4.8
1979-03-10 09:37:15.820 ,3,0,,0,5.,4.8,0.,4.8,,0,0.,4.8,2.,4.8
1979-03-10 09:37:20.620 ,3,0,,0,3.,4.8,1.,4.8,,0,0.,4.8,3.,4.8
1979-03-10 09:37:25.420 ,3,0,,0,0.,4.8,0.,4.8,,0,0.,4.8,2.,4.8
1979-03-10 09:37:30.220 ,3,0,,0,0.,4.8,0.,4.8,,0,0.,4.8,5.,4.8
1979-03-10 09:37:35.020 ,2,0,,0,0.,4.8,0.,4.8,,0,0.,4.8,1.,4.8
1979-03-10 09:37:39.820 ,2,0,,0,0.,4.8,0.,4.8,,0,0.,4.8,2.,4.8
1979-03-10 09:37:44.620 ,2,0,,0,0.,4.8,0.,4.8,,0,0.,4.8,3.,4.8
1979-03-10 09:37:49.420 ,2,0,,0,4.,4.8,0.,4.8,,0,0.,4.8,3.,4.8
1979-03-10 09:37:54.220 ,2,0,,0,3.,4.8,0.,4.8,,0,0.,4.8,2.,4.8
1979-03-10 09:37:59.020 ,1,0,,0,6.,4.8,1.,4.8,,0,0.,4.8,3.,4.8
1979-03-10 09:38:03.820 ,1,0,,0,4.,4.8,1.,4.8,,0,0.,4.8,0.,4.8
1979-03-10 09:38:08.620 ,1,0,,0,5.,4.8,0.,4.8,,0,0.,4.8,1.,4.8
1979-03-10 09:38:13.420 ,1,0,,0,0.,4.8,0.,4.8,,0,0.,4.8,1.,4.8
1979-03-10 09:38:18.220 ,1,0,,0,0.,4.8,0.,4.8,,0,0.,4.8,1.,4.8
1979-03-10 09:38:23.020 ,0,0,,0,0.,4.8,0.,4.8,,0,0.,4.8,0.,4.8
1979-03-10 09:38:27.820 ,0,0,,0,0.,4.8,0.,4.8,,0,0.,4.8,1.,4.8
1979-03-10 09:38:32.620 ,0,0,,0,0.,4.8,0.,4.8,,0,0.,4.8,0.,4.8
1979-03-10 09:38:37.420 ,0,0,,0,0.,4.8,0.,4.8,,0,0.,4.8,0.,4.8
1979-03-10 09:38:42.220 ,0,0,,0,0.,4.8,0.,4.8,,0,0.,4.8,0.,4.8
1979-03-10 09:38:47.020 ,0,0,,0,2.,4.8,1.,4.8,,0,0.,4.8,0.,4.8
1979-03-10 09:38:51.820 ,0,0,,0,1.,4.8,0.,4.8,,0,0.,4.8,0.,4.8
1979-03-10 09:38:56.620 ,0,0,,0,0.,4.8,0.,4.8,,0,0.,4.8,0.,4.8
1979-03-10 09:39:01.420 ,0,0,,0,0.,4.8,0.,4.8,,0,0.,4.8,0.,4.8
1979-03-10 09:39:06.220 ,0,0,,0,0.,4.8,0.,4.8,,0,0.,4.8,0.,4.8
1979-03-10 09:39:11.020 ,1,0,,0,0.,4.8,0.,4.8,,0,0.,4.8,0.,4.8
1979-03-10 09:39:15.820 ,1,0,,0,1.,4.8,0.,4.8,,0,0.,4.8,0.,4.8
1979-03-10 09:39:20.620 ,1,0,,0,0.,4.8,0.,4.8,,0,0.,4.8,1.,4.8
1979-03-10 09:39:25.420 ,1,0,,0,5.,4.8,2.,4.8,,0,0.,4.8,0.,4.8
1979-03-10 09:39:30.220 ,1,0,,0,2.,4.8,0.,4.8,,0,0.,4.8,1.,4.8
1979-03-10 09:39:35.020 ,2,0,,0,2.,4.8,0.,4.8,,0,0.,4.8,1.,4.8
1979-03-10 09:39:39.820 ,2,0,,0,2.,4.8,1.,4.8,,0,0.,4.8,2.,4.8
1979-03-10 09:39:44.620 ,2,0,,0,4.,4.8,0.,4.8,,0,0.,4.8,0.,4.8
1979-03-10 09:39:49.420 ,2,0,,0,0.,4.8,0.,4.8,,0,0.,4.8,1.,4.8
1979-03-10 09:39:54.220 ,2,0,,0,0.,4.8,0.,4.8,,0,0.,4.8,3.,4.8
1979-03-10 09:39:59.020 ,3,0,,0,0.,4.8,0.,4.8,,0,0.,4.8,2.,4.8
1979-03-10 09:40:03.820 ,3,0,,0,0.,4.8,0.,4.8,,0,0.,4.8,0.,4.8
1979-03-10 09:40:08.620 ,3,0,,0,0.,4.8,0.,4.8,,0,0.,4.8,0.,4.8
1979-03-10 09:40:13.420 ,3,0,,0,5.,4.8,0.,4.8,,0,0.,4.8,5.,4.8
1979-03-10 09:40:18.220 ,3,0,,0,4.,4.8,1.,4.8,,0,0.,4.8,3.,4.8
1979-03-10 09:40:23.020 ,4,0,,0,4.,4.8,0.,4.8,,0,0.,4.8,2.,4.8
1979-03-10 09:40:27.820 ,4,0,,0,7.,4.8,0.,4.8,,0,0.,4.8,2.,4.8
1979-03-10 09:40:32.620 ,4,0,,0,3.,4.8,0.,4.8,,0,0.,4.8,2.,4.8
1979-03-10 09:40:37.420 ,4,0,,0,0.,4.8,0.,4.8,,0,0.,4.8,5.,4.8
1979-03-10 09:40:42.220 ,4,0,,0,0.,4.8,0.,4.8,,0,0.,4.8,4.,4.8
1979-03-10 09:40:47.020 ,5,0,,0,0.,4.8,0.,4.8,,0,0.,4.8,0.,4.8
1979-03-10 09:40:51.820 ,5,0,,0,0.,4.8,0.,4.8,,0,0.,4.8,5.,4.8
1979-03-10 09:40:56.620 ,5,0,,0,0.,4.8,0.,4.8,,0,0.,4.8,1.,4.8
1979-03-10 09:41:01.420 ,5,0,,0,5.,4.8,1.,4.8,,0,0.,4.8,3.,4.8
1979-03-10 09:41:06.220 ,5,0,,0,4.,4.8,0.,4.8,,0,0.,4.8,2.,4.8
1979-03-10 09:41:11.020 ,6,0,,0,4.,4.8,2.,4.8,,0,0.,4.8,6.,4.8
1979-03-10 09:41:15.820 ,6,0,,0,4.,4.8,1.,4.8,,0,0.,4.8,4.,4.8
1979-03-10 09:41:20.620 ,6,0,,0,1.,4.8,0.,4.8,,0,0.,4.8,1.,4.8
1979-03-10 09:41:25.420 ,6,0,,0,0.,4.8,0.,4.8,,0,0.,4.8,0.,4.8
1979-03-10 09:41:30.220 ,6,0,,0,0.,4.8,0.,4.8,,0,0.,4.8,0.,4.8
1979-03-10 09:41:35.020 ,7,0,,0,0.,4.8,0.,4.8,,0,0.,4.8,1.,4.8
1979-03-10 09:41:39.820 ,7,0,,0,0.,4.8,0.,4.8,,0,0.,4.8,2.,4.8
1979-03-10 09:41:44.620 ,7,0,,0,2.,4.8,0.,4.8,,0,0.,4.8,0.,4.8
1979-03-10 09:41:49.420 ,7,0,,0,5.,4.8,0.,4.8,,0,0.,4.8,0.,4.8
1979-03-10 09:41:54.220 ,7,0,,0,1.,4.8,0.,4.8,,0,0.,4.8,0.,4.8
1979-03-10 09:41:59.020 ,7,0,,0,3.,4.8,0.,4.8,,0,0.,4.8,0.,4.8
1979-03-10 09:42:03.820 ,7,0,,0,6.,4.8,0.,4.8,,0,0.,4.8,0.,4.8
1979-03-10 09:42:08.620 ,7,0,,0,5.,4.8,0.,4.8,,0,0.,4.8,0.,4.8
1979-03-10 09:42:13.420 ,7,0,,0,0.,4.8,0.,4.8,,0,0.,4.8,0.,4.8
1979-03-10 09:42:18.220 ,7,0,,0,0.,4.8,0.,4.8,,0,0.,4.8,0.,4.8
1979-03-10 09:42:23.020 ,6,0,,0,0.,4.8,0.,4.8,,0,0.,4.8,0.,4.8
1979-03-10 09:42:27.820 ,6,0,,0,0.,4.8,0.,4.8,,0,0.,4.8,1.,4.8
1979-03-10 09:42:32.620 ,6,0,,0,0.,4.8,0.,4.8,,0,0.,4.8,1.,4.8
1979-03-10 09:42:37.420 ,6,0,,0,0.,4.8,0.,4.8,,0,0.,4.8,0.,4.8
1979-03-10 09:42:42.220 ,6,0,,0,2.,4.8,0.,4.8,,0,0.,4.8,3.,4.8
1979-03-10 09:42:47.020 ,5,0,,0,2.,4.8,0.,4.8,,0,0.,4.8,2.,4.8
1979-03-10 09:42:51.820 ,5,0,,0,2.,4.8,2.,4.8,,0,0.,4.8,1.,4.8
1979-03-10 09:42:56.620 ,5,0,,0,0.,4.8,0.,4.8,,0,0.,4.8,2.,4.8
1979-03-10 09:43:01.420 ,5,0,,0,0.,4.8,0.,4.8,,0,0.,4.8,4.,4.8
1979-03-10 09:43:06.220 ,5,0,,0,0.,4.8,0.,4.8,,0,0.,4.8,4.,4.8
1979-03-10 09:43:11.020 ,4,0,,0,0.,4.8,0.,4.8,,0,0.,4.8,1.,4.8
1979-03-10 09:43:15.820 ,4,0,,0,0.,4.8,0.,4.8,,0,0.,4.8,6.,4.8
1979-03-10 09:43:20.620 ,4,0,,0,0.,4.8,0.,4.8,,0,0.,4.8,1.,4.8
1979-03-10 09:43:25.420 ,4,0,,0,4.,4.8,1.,4.8,,0,0.,4.8,3.,4.8
1979-03-10 09:43:30.220 ,4,0,,0,5.,4.8,0.,4.8,,0,0.,4.8,5.,4.8
1979-03-10 09:43:35.020 ,3,0,,0,4.,4.8,1.,4.8,,0,0.,4.8,4.,4.8
1979-03-10 09:43:39.820 ,3,0,,0,8.,4.8,1.,4.8,,0,0.,4.8,2.,4.8
1979-03-10 09:43:44.620 ,3,0,,0,4.,4.8,0.,4.8,,0,0.,4.8,4.,4.8
1979-03-10 09:43:49.420 ,3,0,,0,0.,4.8,0.,4.8,,0,0.,4.8,1.,4.8
1979-03-10 09:43:54.220 ,3,0,,0,0.,4.8,0.,4.8,,0,0.,4.8,2.,4.8
1979-03-10 09:43:59.020 ,2,0,,0,0.,4.8,0.,4.8,,0,0.,4.8,3.,4.8
1979-03-10 09:44:03.820 ,2,0,,0,0.,4.8,0.,4.8,,0,0.,4.8,3.,4.8
1979-03-10 09:44:08.620 ,2,0,,0,0.,4.8,0.,4.8,,0,0.,4.8,3.,4.8
1979-03-10 09:44:13.420 ,2,0,,0,5.,4.8,1.,4.8,,0,0.,4.8,2.,4.8
1979-03-10 09:44:18.220 ,2,0,,0,6.,4.8,0.,4.8,,0,0.,4.8,6.,4.8
1979-03-10 09:44:23.020 ,1,0,,0,9.,4.8,3.,4.8,,0,0.,4.8,2.,4.8
1979-03-10 09:44:27.820 ,1,0,,0,2.,4.8,0.,4.8,,0,0.,4.8,1.,4.8
1979-03-10 09:44:32.620 ,1,0,,0,0.,4.8,0.,4.8,,0,0.,4.8,0.,4.8
1979-03-10 09:44:37.420 ,1,0,,0,0.,4.8,0.,4.8,,0,0.,4.8,1.,4.8
1979-03-10 09:44:42.220 ,1,0,,0,0.,4.8,0.,4.8,,0,0.,4.8,0.,4.8